Location: Caltech
(34.1382°N, 118.1253°W)
Time: 22:29:14
(UTC-07:00)

NOSS 3-2 (A) - Visible Passes

Search period start: 05 May 2016 00:00
Search period end: 15 May 2016 00:00
Orbit: 907 x 1302 km, 63.4° (Epoch: 15 April)

Date Brightness Start Highest point End Pass type
(mag) Time Alt. Az. Time Alt. Az. Time Alt. Az.
05 May 4.4 04:43:00 10° S 04:48:40 45° ESE 04:54:43 10° NE visible
06 May 5.2 03:58:51 10° SSE 04:03:38 25° ESE 04:08:38 10° ENE visible
07 May 5.7 03:16:08 10° SE 03:18:44 13° ESE 03:21:22 10° E visible
07 May 3.5 05:02:38 10° SW 05:08:35 78° WNW 05:15:06 10° NNE visible
08 May 3.8 04:19:05 20° S 04:23:19 62° ESE 04:29:39 10° NE visible
09 May 4.6 03:35:28 23° SSE 03:38:12 34° ESE 03:43:51 10° NE visible
09 May 4.3 05:23:22 10° WSW 05:28:55 35° NW 05:34:54 10° NNE visible
10 May 5.3 02:51:48 17° SE 02:53:14 19° ESE 02:57:24 10° ENE visible
10 May 3.7 04:39:13 21° SW 04:43:21 59° NW 04:49:48 10° NNE visible
11 May 3.4 03:55:29 38° SSW 03:58:00 83° ESE 04:04:30 10° NNE visible
12 May 4.0 03:11:42 42° SE 03:12:48 47° ESE 03:18:53 10° NE visible
12 May 4.7 04:59:06 12° WSW 05:03:51 28° NW 05:09:24 10° N visible
13 May 4.9 02:27:52 26° ESE 02:27:52 26° ESE 02:32:52 10° NE visible
13 May 4.0 04:15:16 27° WSW 04:18:12 44° NW 04:24:27 10° NNE visible
14 May 5.7 01:44:00 13° E 01:44:00 13° E 01:45:46 10° ENE visible
14 May 3.4 03:31:23 56° SW 03:32:44 75° WNW 03:39:15 10° NNE visible
14 May 5.5 05:21:36 10° WNW 05:24:50 14° NW 05:28:11 10° N visible
